Погода в Шипунове

Россия / Алтайский край     52°13′12″N   82°15′30″E
темп.,
°C
ветер,
м/с
пор.,
м/с
влажн.,
%
обл.,
%
осадки,
мм/ч
давл.,
гПа
погр.,
м
28 февраля, вс
вс2801:00−27ю22920 0.0 104019
04:00−27ююв23917 0.0 103919
07:00−26юв239722 0.0 103820
10:00−22юв349231 0.0 103594
13:00−11ю6137764 0.0 1032861
16:00−8ююз71475100 0.0 1029982
19:00−8ююз71790100 0.1 1025829
22:00−8ююз91890100 0.8 1023885
1 марта, пн
пн101:00−7ююз101993100 1.4 1020927
04:00−6ююз112086100 0.9 1018962
07:00−6ююз132292100 1.3 1015897
10:00−5ююз142392100 1.3 1014859
13:00−4ююз142191100 2.4 1013897
16:00−3ююз132190100 0.1 1013823
19:00−3ююз132091100 0.9 1012908
22:00−2ююз132192100 0.6 1011875
2 марта, вт
вт201:000юз91496100 2.9 1013847
04:00−5юз6148976 0.3 1014440
07:00−8юз6139275 0.3 1016402
10:00−10зюз6129294 0.0 1018400
13:00−8зюз599088 0.0 1018457
16:00−6зюз4791100 0.0 1017430
19:00−8ссз1196100 0.1 101621
22:00−11ссв2396100 0.1 101649
3 марта, ср
ср301:00−12всв229795 0.2 101621
04:00−11в119698 0.1 101521
07:00−10сз129699 0.3 101721
10:00−9з4794100 0.4 1018309
13:00−9юз5891100 0.6 1020615
16:00−10юз7990100 0.2 1022695
19:00−13юз51190100 0.3 1024372
22:00−16юз479549 0.0 1025113
4 марта, чт
чт401:00−14ююз399574 0.0 1025205
04:00−13ююз3793100 0.0 1024163
07:00−11ююз3109297 0.0 1024262
10:00−10ююз6158398 0.0 1023449
13:00−7ююз8147796 0.0 1022660
16:00−5ююз71577100 0.0 1020681
19:00−7ююз51583100 0.0 1019503
22:00−7ююз5168394 0.0 1018417